When you browse on this site, cookies collect data to enhance your experience and personalize the content and advertising you see.
Visit our Privacy Policy to learn more. By continuing to use the site, you agree to this use of cookies and data.
  • In Portugal
  • List of Countries
  • For 7 days
  • Water Temperature
  • Satellite Maps
  • Weather Map
  • Weather Widgets
  • user-avatar
    Login

    Hourly Weather Yerevan

    Today, 21 May, Tuesday

    Time Temperature Precipitation Wind Pressure Humidity
    00:00 +18°C° 0.1 mm 2 mps 690 mmHg 52%
    01:00 +17°C° 0.1 mm 2 mps 690 mmHg 54%
    02:00 +17°C° 0.1 mm 2 mps 689 mmHg 55%
    03:00 +16°C° 0 mm 2 mps 689 mmHg 57%
    04:00 +17°C° 0.1 mm 2 mps 689 mmHg 57%
    05:00 +17°C° 0.1 mm 2 mps 690 mmHg 58%
    06:00 +17°C° 0.1 mm 2 mps 690 mmHg 58%
    07:00 +19°C° 0.1 mm 2 mps 691 mmHg 53%
    08:00 +20°C° 0.1 mm 2 mps 691 mmHg 47%
    09:00 +23°C° 0 mm 2 mps 691 mmHg 42%
    10:00 +24°C° 0 mm 2 mps 691 mmHg 38%
    11:00 +25°C° 0 mm 2 mps 691 mmHg 35%
    12:00 +26°C° 0 mm 2 mps 691 mmHg 31%
    13:00 +26°C° 0 mm 2 mps 691 mmHg 30%
    14:00 +27°C° 0 mm 2 mps 691 mmHg 29%
    15:00 +25°C° 0 mm 2 mps 692 mmHg 35%
    16:00 +24°C° 0 mm 2 mps 692 mmHg 36%
    17:00 +24°C° 0 mm 1 mps 692 mmHg 37%
    18:00 +24°C° 0 mm 1 mps 692 mmHg 38%
    19:00 +22°C° 0 mm 1 mps 692 mmHg 43%
    20:00 +20°C° 0 mm 1 mps 692 mmHg 49%
    21:00 +19°C° 0 mm 1 mps 692 mmHg 54%
    22:00 +18°C° 0 mm 1 mps 692 mmHg 57%
    23:00 +16°C° 0 mm 1 mps 692 mmHg 59%

    Tomorrow, 22 May, Wednesday

    Time Temperature Precipitation Wind Pressure Humidity
    00:00 +16°C° 0 mm 1 mps 692 mmHg 62%
    01:00 +16°C° 0 mm 1 mps 692 mmHg 63%
    02:00 +15°C° 0 mm 1 mps 692 mmHg 64%
    03:00 +15°C° 0 mm 1 mps 692 mmHg 65%
    04:00 +16°C° 0 mm 1 mps 692 mmHg 64%
    05:00 +16°C° 0 mm 1 mps 692 mmHg 62%
    06:00 +18°C° 0 mm 1 mps 693 mmHg 60%
    07:00 +20°C° 0 mm 1 mps 692 mmHg 54%
    08:00 +20°C° 0 mm 2 mps 692 mmHg 47%
    09:00 +21°C° 0 mm 2 mps 692 mmHg 41%
    10:00 +24°C° 0 mm 2 mps 692 mmHg 39%
    11:00 +25°C° 0 mm 2 mps 692 mmHg 36%
    12:00 +26°C° 0 mm 2 mps 691 mmHg 34%
    13:00 +27°C° 0.1 mm 2 mps 691 mmHg 33%
    14:00 +27°C° 0.1 mm 2 mps 691 mmHg 32%
    15:00 +28°C° 0.1 mm 2 mps 691 mmHg 31%
    16:00 +27°C° 0.2 mm 2 mps 691 mmHg 34%
    17:00 +26°C° 0.2 mm 2 mps 691 mmHg 37%
    18:00 +26°C° 0.2 mm 2 mps 691 mmHg 40%
    19:00 +24°C° 0.1 mm 2 mps 691 mmHg 45%
    20:00 +22°C° 0.1 mm 1 mps 691 mmHg 50%
    21:00 +20°C° 0.1 mm 1 mps 691 mmHg 55%
    22:00 +20°C° 0.1 mm 1 mps 691 mmHg 57%
    23:00 +19°C° 0.1 mm 1 mps 691 mmHg 60%

    Day after tomorrow, 23 May, Thursday

    Time Temperature Precipitation Wind Pressure Humidity
    00:00 +19°C° 0.1 mm 1 mps 691 mmHg 62%
    01:00 +18°C° 0 mm 1 mps 691 mmHg 63%
    02:00 +16°C° 0 mm 1 mps 690 mmHg 63%
    03:00 +16°C° 0 mm 1 mps 690 mmHg 64%
    04:00 +18°C° 0 mm 1 mps 690 mmHg 61%
    05:00 +18°C° 0 mm 1 mps 690 mmHg 58%
    06:00 +19°C° 0 mm 1 mps 690 mmHg 55%
    07:00 +21°C° 0 mm 1 mps 690 mmHg 49%
    08:00 +22°C° 0 mm 1 mps 690 mmHg 43%
    09:00 +24°C° 0 mm 1 mps 690 mmHg 36%
    10:00 +25°C° 0 mm 1 mps 690 mmHg 35%
    11:00 +25°C° 0 mm 2 mps 690 mmHg 34%
    12:00 +26°C° 0 mm 2 mps 689 mmHg 33%
    13:00 +27°C° 0.1 mm 2 mps 689 mmHg 32%
    14:00 +27°C° 0.1 mm 2 mps 689 mmHg 31%
    15:00 +28°C° 0.1 mm 2 mps 689 mmHg 30%
    16:00 +28°C° 0.1 mm 2 mps 689 mmHg 31%
    17:00 +27°C° 0.1 mm 2 mps 689 mmHg 33%
    18:00 +27°C° 0.1 mm 3 mps 689 mmHg 35%
    19:00 +25°C° 0.1 mm 2 mps 689 mmHg 39%
    20:00 +23°C° 0.1 mm 2 mps 690 mmHg 44%
    21:00 +21°C° 0.1 mm 2 mps 690 mmHg 48%
    22:00 +20°C° 0 mm 2 mps 690 mmHg 50%
    23:00 +20°C° 0 mm 1 mps 690 mmHg 52%

    24 May, Friday

    Time Temperature Precipitation Wind Pressure Humidity
    00:00 +19°C° 0 mm 1 mps 690 mmHg 53%
    01:00 +19°C° 0 mm 1 mps 690 mmHg 54%
    02:00 +18°C° 0 mm 1 mps 690 mmHg 55%
    03:00 +18°C° 0 mm 1 mps 690 mmHg 55%
    04:00 +18°C° 0 mm 1 mps 690 mmHg 54%
    05:00 +19°C° 0 mm 1 mps 691 mmHg 53%
    06:00 +20°C° 0 mm 1 mps 691 mmHg 51%
    07:00 +21°C° 0 mm 1 mps 691 mmHg 47%
    08:00 +22°C° 0 mm 1 mps 691 mmHg 43%
    09:00 +24°C° 0 mm 1 mps 691 mmHg 39%
    10:00 +25°C° 0 mm 2 mps 691 mmHg 38%
    11:00 +26°C° 0 mm 2 mps 691 mmHg 36%
    12:00 +27°C° 0 mm 2 mps 690 mmHg 34%
    13:00 +28°C° 0.1 mm 2 mps 690 mmHg 34%
    14:00 +28°C° 0.1 mm 2 mps 690 mmHg 33%
    15:00 +29°C° 0.1 mm 2 mps 690 mmHg 33%
    16:00 +29°C° 0.1 mm 2 mps 690 mmHg 35%
    17:00 +28°C° 0.1 mm 2 mps 690 mmHg 36%
    18:00 +28°C° 0.1 mm 2 mps 690 mmHg 38%
    19:00 +26°C° 0.2 mm 2 mps 691 mmHg 42%
    20:00 +24°C° 0.2 mm 2 mps 691 mmHg 46%
    21:00 +21°C° 0.2 mm 2 mps 691 mmHg 50%
    22:00 +21°C° 0.2 mm 2 mps 692 mmHg 51%
    23:00 +22°C° 0.2 mm 1 mps 692 mmHg 52%

    25 May, Saturday

    Time Temperature Precipitation Wind Pressure Humidity
    00:00 +21°C° 0.2 mm 1 mps 692 mmHg 53%
    01:00 +21°C° 0.1 mm 1 mps 692 mmHg 54%
    02:00 +21°C° 0.1 mm 1 mps 692 mmHg 55%
    03:00 +20°C° 0.1 mm 1 mps 692 mmHg 56%
    04:00 +20°C° 0 mm 2 mps 692 mmHg 55%
    05:00 +20°C° 0 mm 2 mps 692 mmHg 54%
    06:00 +21°C° 0 mm 2 mps 692 mmHg 53%
    07:00 +24°C° 0 mm 3 mps 692 mmHg 47%
    08:00 +26°C° 0 mm 3 mps 692 mmHg 41%
    09:00 +27°C° 0 mm 4 mps 692 mmHg 34%
    10:00 +29°C° 0.1 mm 4 mps 692 mmHg 32%
    11:00 +30°C° 0.1 mm 4 mps 692 mmHg 30%
    12:00 +32°C° 0.1 mm 5 mps 692 mmHg 27%
    13:00 +33°C° 0.1 mm 4 mps 692 mmHg 26%
    14:00 +33°C° 0.1 mm 4 mps 691 mmHg 24%
    15:00 +34°C° 0.1 mm 3 mps 691 mmHg 23%
    16:00 +31°C° 0.4 mm 3 mps 691 mmHg 29%
    17:00 +29°C° 0.4 mm 3 mps 691 mmHg 34%
    18:00 +27°C° 0.4 mm 3 mps 691 mmHg 40%
    19:00 +26°C° 0 mm 3 mps 691 mmHg 42%
    20:00 +25°C° 0 mm 3 mps 691 mmHg 43%
    21:00 +24°C° 0 mm 3 mps 691 mmHg 44%
    22:00 +24°C° 0 mm 3 mps 691 mmHg 44%
    23:00 +22°C° 0 mm 3 mps 690 mmHg 44%

    26 May, Sunday

    Time Temperature Precipitation Wind Pressure Humidity
    00:00 +22°C° 0 mm 3 mps 690 mmHg 44%
    01:00 +21°C° 0 mm 3 mps 690 mmHg 45%
    02:00 +21°C° 0 mm 3 mps 689 mmHg 46%
    03:00 +20°C° 0 mm 3 mps 689 mmHg 47%
    04:00 +20°C° 0 mm 3 mps 689 mmHg 47%
    05:00 +21°C° 0 mm 2 mps 689 mmHg 48%
    06:00 +21°C° 0 mm 2 mps 689 mmHg 48%
    07:00 +24°C° 0 mm 2 mps 689 mmHg 42%
    08:00 +26°C° 0 mm 2 mps 689 mmHg 36%
    09:00 +28°C° 0 mm 2 mps 689 mmHg 30%
    10:00 +30°C° 0.1 mm 3 mps 689 mmHg 28%
    11:00 +31°C° 0.1 mm 3 mps 688 mmHg 26%
    12:00 +33°C° 0.1 mm 4 mps 688 mmHg 25%
    13:00 +33°C° 0 mm 3 mps 688 mmHg 23%
    14:00 +34°C° 0 mm 3 mps 688 mmHg 22%
    15:00 +34°C° 0 mm 3 mps 688 mmHg 21%
    16:00 +33°C° 0 mm 3 mps 688 mmHg 22%
    17:00 +32°C° 0 mm 2 mps 688 mmHg 23%
    18:00 +31°C° 0 mm 2 mps 688 mmHg 24%
    19:00 +29°C° 0 mm 3 mps 689 mmHg 28%
    20:00 +26°C° 0 mm 4 mps 689 mmHg 32%
    21:00 +23°C° 0 mm 4 mps 690 mmHg 36%
    22:00 +22°C° 0 mm 4 mps 690 mmHg 42%
    23:00 +21°C° 0 mm 4 mps 690 mmHg 48%
    Show more